Location: Unspecified
(42.9300°N, 71.1866°W)
Time: 04:45:21
(UTC-05:00)

Okean 3 - Visible Passes

Search period start: 25 November 2017 00:00
Search period end: 05 December 2017 00:00
Orbit: 576 x 603 km, 82.5° (Epoch: 25 November)

Date Brightness Start Highest point End Pass type
(mag) Time Alt. Az. Time Alt. Az. Time Alt. Az.
25 Nov 3.7 05:47:23 10° N 05:51:36 74° E 05:55:50 10° SSE visible
26 Nov 6.8 04:21:39 10° ENE 04:21:59 10° ENE 04:22:19 10° ENE visible
26 Nov 3.4 05:55:33 10° NNW 05:59:46 73° W 06:03:59 10° S visible
26 Nov 5.4 18:22:52 10° S 18:23:55 17° S 18:23:55 17° S visible
27 Nov 6.4 04:27:54 10° NE 04:30:21 15° ENE 04:32:47 10° ESE visible
27 Nov 3.7 06:03:48 10° NNW 06:07:52 47° W 06:11:57 10° SSW visible
27 Nov 4.7 18:30:55 10° S 18:33:12 32° S 18:33:12 32° S visible
28 Nov 5.9 04:35:23 10° NNE 04:38:40 21° ENE 04:41:56 10° ESE visible
28 Nov 4.2 06:12:12 10° NNW 06:15:57 31° W 06:19:43 10° SSW visible
28 Nov 5.4 17:05:26 10° E 17:05:50 11° E 17:05:50 11° E visible
28 Nov 4.2 18:39:08 10° SSW 18:42:26 49° SW 18:42:26 49° SW visible
29 Nov 5.3 04:43:09 10° NNE 04:46:56 31° ENE 04:50:43 10° SE visible
29 Nov 4.7 06:20:45 10° NW 06:23:59 22° W 06:27:14 10° SW visible
29 Nov 4.9 17:11:55 10° SE 17:14:33 16° E 17:15:01 16° ENE visible
29 Nov 4.7 18:47:32 10° SSW 18:51:27 39° WNW 18:51:38 39° WNW visible
30 Nov 4.5 04:51:04 10° N 04:55:10 46° ENE 04:59:16 10° SSE visible
30 Nov 4.5 17:19:11 10° SE 17:22:33 24° E 17:24:09 19° NE visible
30 Nov 5.4 18:56:09 10° SW 18:59:41 26° WNW 19:00:45 24° NW visible
01 Dec 3.7 04:59:26 12° N 05:03:22 70° E 05:07:36 10° SSE visible
01 Dec 4.0 17:26:47 10° SSE 17:30:36 35° E 17:33:12 18° NE visible
01 Dec 6.0 19:05:03 10° WSW 19:07:59 18° WNW 19:09:48 14° NW visible
02 Dec 3.3 05:08:33 19° NNW 05:11:31 77° W 05:15:46 10° S visible
02 Dec 3.5 17:34:37 10° S 17:38:41 54° E 17:42:10 14° NNE visible
02 Dec 6.5 19:14:25 10° W 19:16:19 13° WNW 19:18:13 10° NW visible
03 Dec 6.3 03:41:07 14° NE 03:42:04 14° ENE 03:44:24 10° ESE visible
03 Dec 3.6 05:17:44 28° NNW 05:19:38 50° W 05:23:45 10° S visible
03 Dec 3.3 17:42:38 10° S 17:46:48 84° E 17:51:00 10° N visible
04 Dec 5.9 03:50:21 21° ENE 03:50:23 21° ENE 03:53:36 10° ESE visible
04 Dec 4.1 05:26:58 31° WNW 05:27:43 33° W 05:31:33 10° SSW visible
04 Dec 3.8 17:50:50 10° SSW 17:54:57 63° W 17:59:07 10° N visible
